EN

Hourly Weather Kytchenkivka

Today, 24 July, Saturday

Time Temperature Precipitation Wind Pressure Humidity
00:00 +17°C° 0 mm 2 mps 744 mmHg 66%
01:00 +17°C° 0 mm 2 mps 744 mmHg 67%
02:00 +17°C° 0 mm 2 mps 745 mmHg 68%
03:00 +18°C° 0 mm 1 mps 745 mmHg 69%
04:00 +18°C° 0 mm 1 mps 745 mmHg 70%
05:00 +18°C° 0 mm 1 mps 745 mmHg 72%
06:00 +20°C° 0 mm 1 mps 745 mmHg 65%
07:00 +21°C° 0 mm 2 mps 745 mmHg 58%
08:00 +24°C° 0 mm 2 mps 745 mmHg 51%
09:00 +25°C° 0 mm 2 mps 745 mmHg 47%
10:00 +27°C° 0 mm 3 mps 745 mmHg 43%
11:00 +28°C° 0 mm 3 mps 745 mmHg 39%
12:00 +27°C° 0 mm 3 mps 745 mmHg 40%
13:00 +27°C° 0 mm 3 mps 745 mmHg 42%
14:00 +27°C° 0 mm 3 mps 745 mmHg 43%
15:00 +26°C° 0 mm 3 mps 746 mmHg 45%
16:00 +26°C° 0 mm 3 mps 746 mmHg 47%
17:00 +26°C° 0 mm 3 mps 746 mmHg 49%
18:00 +25°C° 0 mm 2 mps 746 mmHg 52%
19:00 +24°C° 0 mm 2 mps 746 mmHg 55%
20:00 +22°C° 0 mm 1 mps 747 mmHg 58%
21:00 +22°C° 0 mm 1 mps 747 mmHg 61%
22:00 +21°C° 0 mm 1 mps 747 mmHg 64%
23:00 +21°C° 0 mm 1 mps 747 mmHg 67%

Tomorrow, 25 July, Sunday

Time Temperature Precipitation Wind Pressure Humidity
00:00 +20°C° 0 mm 1 mps 748 mmHg 70%
01:00 +19°C° 0 mm 1 mps 748 mmHg 73%
02:00 +19°C° 0 mm 1 mps 748 mmHg 77%
03:00 +19°C° 0 mm 1 mps 748 mmHg 78%
04:00 +19°C° 0 mm 1 mps 748 mmHg 79%
05:00 +19°C° 0 mm 1 mps 748 mmHg 80%
06:00 +21°C° 0 mm 1 mps 749 mmHg 74%
07:00 +23°C° 0 mm 1 mps 749 mmHg 67%
08:00 +24°C° 0 mm 1 mps 749 mmHg 60%
09:00 +26°C° 0 mm 1 mps 749 mmHg 55%
10:00 +27°C° 0 mm 2 mps 749 mmHg 50%
11:00 +28°C° 0 mm 2 mps 749 mmHg 45%
12:00 +27°C° 0 mm 2 mps 749 mmHg 49%
13:00 +27°C° 0 mm 2 mps 749 mmHg 52%
14:00 +26°C° 0 mm 3 mps 749 mmHg 55%
15:00 +25°C° 0.1 mm 2 mps 749 mmHg 57%
16:00 +25°C° 0.1 mm 2 mps 750 mmHg 59%
17:00 +24°C° 0.1 mm 1 mps 750 mmHg 61%
18:00 +24°C° 0 mm 1 mps 750 mmHg 62%
19:00 +23°C° 0 mm 2 mps 750 mmHg 63%
20:00 +23°C° 0 mm 2 mps 750 mmHg 64%
21:00 +21°C° 0 mm 2 mps 750 mmHg 63%
22:00 +21°C° 0 mm 2 mps 751 mmHg 63%
23:00 +20°C° 0 mm 3 mps 751 mmHg 62%

Day after tomorrow, 26 July, Monday

Time Temperature Precipitation Wind Pressure Humidity
00:00 +19°C° 0 mm 3 mps 751 mmHg 61%
01:00 +19°C° 0 mm 3 mps 751 mmHg 60%
02:00 +18°C° 0 mm 3 mps 751 mmHg 59%
03:00 +18°C° 0 mm 3 mps 751 mmHg 61%
04:00 +18°C° 0 mm 3 mps 751 mmHg 63%
05:00 +18°C° 0 mm 2 mps 751 mmHg 65%
06:00 +20°C° 0 mm 3 mps 752 mmHg 60%
07:00 +21°C° 0 mm 3 mps 752 mmHg 55%
08:00 +24°C° 0 mm 3 mps 752 mmHg 50%
09:00 +25°C° 0 mm 3 mps 752 mmHg 45%
10:00 +27°C° 0 mm 3 mps 752 mmHg 39%
11:00 +28°C° 0 mm 3 mps 752 mmHg 34%
12:00 +29°C° 0 mm 3 mps 752 mmHg 33%
13:00 +30°C° 0 mm 3 mps 751 mmHg 31%
14:00 +31°C° 0 mm 3 mps 751 mmHg 30%
15:00 +30°C° 0 mm 3 mps 751 mmHg 31%
16:00 +30°C° 0 mm 4 mps 751 mmHg 33%
17:00 +29°C° 0 mm 4 mps 751 mmHg 34%
18:00 +27°C° 0 mm 4 mps 751 mmHg 38%
19:00 +25°C° 0 mm 4 mps 751 mmHg 41%
20:00 +22°C° 0 mm 4 mps 751 mmHg 45%
21:00 +21°C° 0 mm 4 mps 751 mmHg 48%
22:00 +20°C° 0 mm 3 mps 751 mmHg 50%
23:00 +20°C° 0 mm 3 mps 751 mmHg 52%

27 July, Tuesday

Time Temperature Precipitation Wind Pressure Humidity
00:00 +19°C° 0 mm 3 mps 751 mmHg 54%
01:00 +18°C° 0 mm 3 mps 751 mmHg 56%
02:00 +18°C° 0 mm 3 mps 751 mmHg 58%
03:00 +18°C° 0 mm 3 mps 751 mmHg 59%
04:00 +18°C° 0 mm 3 mps 751 mmHg 60%
05:00 +17°C° 0 mm 3 mps 752 mmHg 61%
06:00 +20°C° 0 mm 3 mps 751 mmHg 55%
07:00 +22°C° 0 mm 3 mps 751 mmHg 48%
08:00 +26°C° 0 mm 4 mps 751 mmHg 41%
09:00 +27°C° 0 mm 4 mps 751 mmHg 38%
10:00 +28°C° 0 mm 4 mps 751 mmHg 35%
11:00 +30°C° 0 mm 4 mps 751 mmHg 32%
12:00 +30°C° 0 mm 3 mps 751 mmHg 31%
13:00 +31°C° 0 mm 2 mps 750 mmHg 30%
14:00 +32°C° 0 mm 2 mps 750 mmHg 28%
15:00 +32°C° 0 mm 2 mps 750 mmHg 29%
16:00 +31°C° 0 mm 1 mps 750 mmHg 30%
17:00 +31°C° 0 mm 1 mps 750 mmHg 31%
18:00 +29°C° 0 mm 1 mps 750 mmHg 36%
19:00 +27°C° 0 mm 1 mps 749 mmHg 41%
20:00 +25°C° 0 mm 1 mps 749 mmHg 45%
21:00 +24°C° 0 mm 2 mps 750 mmHg 48%
22:00 +23°C° 0 mm 2 mps 750 mmHg 51%
23:00 +23°C° 0 mm 2 mps 750 mmHg 54%

28 July, Wednesday

Time Temperature Precipitation Wind Pressure Humidity
00:00 +21°C° 0 mm 2 mps 749 mmHg 56%
01:00 +21°C° 0 mm 2 mps 749 mmHg 58%
02:00 +20°C° 0 mm 2 mps 749 mmHg 60%
03:00 +20°C° 0 mm 2 mps 749 mmHg 62%
04:00 +20°C° 0 mm 2 mps 749 mmHg 63%
05:00 +19°C° 0 mm 2 mps 749 mmHg 65%
06:00 +23°C° 0 mm 2 mps 749 mmHg 58%
07:00 +25°C° 0 mm 2 mps 749 mmHg 52%
08:00 +28°C° 0 mm 2 mps 749 mmHg 45%
09:00 +29°C° 0 mm 2 mps 749 mmHg 40%
10:00 +30°C° 0 mm 3 mps 748 mmHg 35%
11:00 +33°C° 0 mm 3 mps 748 mmHg 30%
12:00 +33°C° 0 mm 3 mps 748 mmHg 29%
13:00 +34°C° 0 mm 3 mps 747 mmHg 27%
14:00 +34°C° 0 mm 3 mps 747 mmHg 26%
15:00 +34°C° 0 mm 3 mps 747 mmHg 29%
16:00 +34°C° 0 mm 2 mps 746 mmHg 31%
17:00 +34°C° 0 mm 2 mps 746 mmHg 34%
18:00 +31°C° 0 mm 2 mps 746 mmHg 38%
19:00 +29°C° 0 mm 3 mps 746 mmHg 43%
20:00 +27°C° 0 mm 3 mps 745 mmHg 48%
21:00 +26°C° 0 mm 3 mps 745 mmHg 51%
22:00 +25°C° 0 mm 3 mps 745 mmHg 54%
23:00 +25°C° 0 mm 3 mps 745 mmHg 57%

29 July, Thursday

Time Temperature Precipitation Wind Pressure Humidity
00:00 +24°C° 0.1 mm 3 mps 745 mmHg 60%
01:00 +22°C° 0.1 mm 3 mps 744 mmHg 62%
02:00 +22°C° 0.1 mm 3 mps 744 mmHg 65%
03:00 +21°C° 0.3 mm 3 mps 744 mmHg 70%
04:00 +20°C° 0.3 mm 3 mps 744 mmHg 75%
05:00 +20°C° 0.3 mm 3 mps 744 mmHg 80%
06:00 +21°C° 0.4 mm 4 mps 744 mmHg 78%
07:00 +22°C° 0.4 mm 4 mps 744 mmHg 76%
08:00 +25°C° 0.4 mm 5 mps 744 mmHg 74%
09:00 +27°C° 0 mm 5 mps 744 mmHg 64%
10:00 +29°C° 0 mm 5 mps 743 mmHg 55%
11:00 +32°C° 0 mm 5 mps 743 mmHg 45%
12:00 +32°C° 0 mm 6 mps 743 mmHg 46%
13:00 +32°C° 0 mm 7 mps 743 mmHg 46%
14:00 +32°C° 0 mm 7 mps 743 mmHg 46%
15:00 +30°C° 0.1 mm 7 mps 742 mmHg 49%
16:00 +29°C° 0.1 mm 7 mps 742 mmHg 53%
17:00 +28°C° 0.1 mm 7 mps 742 mmHg 56%
18:00 +26°C° 0.5 mm 6 mps 743 mmHg 66%
19:00 +25°C° 0.5 mm 4 mps 743 mmHg 77%
20:00 +22°C° 0.5 mm 3 mps 744 mmHg 87%
21:00 +21°C° 0 mm 3 mps 744 mmHg 89%
22:00 +20°C° 0 mm 3 mps 744 mmHg 90%
23:00 +20°C° 0 mm 3 mps 744 mmHg 92%
Show more